Preview of NWS' New Version of Forecast
This preview is not operational and should not be used for support decisions.
Latest weather observations around

Macon, Middle Georgia Regional Airport (KMCN)

Using English Units (Switch to International System of Units)
Date/ Time (EDT) Wind (mph) Vis. (mi) Weather Sky Cond. Temp (°F) Rel. Humidity Wind Chill (°F) Heat Index (°F) Pressure Precip. (in)
Air Dwpt 6 hour Altimeter (inHg) Sea level (inHg) 1 hr 3 hr 6 hr
Max Min
Sep 20 15:53 SSE 11 10 Clear CLR 88 50     27%   85 30.2 30.19      
Sep 20 14:53 3 10 Clear CLR 88 53     30%   86 30.22 30.21      
Sep 20 13:53 ESE 8 10 Mostly Clear FEW055 85 54     35%   83 30.25 30.23      
Sep 20 12:53 SE 8 10 Clear CLR 84 57     40%   83 30.27 30.26      
Sep 20 11:53 E 8 10 Clear CLR 80 55     42%   80 30.29 30.28      
Sep 20 10:53 E 11 10 Clear CLR 76 54     47%   75 30.29 30.28      
Sep 20 09:53 E 9 10 Clear CLR 70 53     55%     30.29 30.28      
Sep 20 08:53 Calm 10 Clear CLR 62 54     75%     30.29 30.28      
Sep 20 07:53 Calm 10 Clear CLR 52 50     93%     30.27 30.26      
Sep 20 06:53 Calm 10 Clear CLR 51 49     92%     30.25 30.24      
Sep 20 05:53 Calm 10 Clear CLR 52 50     93%     30.23 30.22      
Sep 20 04:53 Calm 10 Clear CLR 53 50     89%     30.22 30.21      
Sep 20 03:53 Calm 10 Clear CLR 55 52     89%     30.22 30.2      
Sep 20 02:53 Calm 10 Clear CLR 57 52     83%     30.22 30.21      
Sep 20 01:53 Calm 10 Clear CLR 58 53     84%     30.22 30.2      
Sep 20 00:53 Calm 10 Clear CLR 59 53     81%     30.21 30.19      
Sep 19 23:53 Calm 10 Clear CLR 60 54     80%     30.2 30.19      
Sep 19 22:53 NE 3 10 Clear CLR 65 52     63%     30.19 30.18      
Sep 19 21:53 ENE 7 10 Clear CLR 67 53     61%     30.18 30.16      
Sep 19 20:53 ENE 7 10 Clear CLR 69 53     57%     30.16 30.15      
Sep 19 19:53 ENE 7 10 Clear CLR 73 53     50%   72 30.14 30.13      
Sep 19 18:53 ENE 9 10 Clear CLR 81 53     38%   80 30.13 30.12      
Sep 19 17:53 NE 14 10 Clear CLR 84 53     35%   83 30.13 30.11      
Sep 19 16:53 E 11 10 Clear CLR 85 52     32%   83 30.13 30.12      
Sep 19 15:53 ENE 13 10 Clear CLR 86 52     31%   84 30.14 30.12      
Sep 19 14:53 NE 11 10 Clear CLR 85 52     32%   83 30.15 30.14      
Sep 19 13:53 E 15 10 Clear CLR 85 52     32%   83 30.17 30.16      
Sep 19 12:53 E 10 10 Clear CLR 84 53     35%   83 30.19 30.17      
Sep 19 11:53 6 10 Clear CLR 81 54     39%   81 30.2 30.18      
Sep 19 09:53 E 8 10 Cloudy BKN060 OVC100 73 56     55%   73 30.2 30.19      
Sep 19 08:53 E 8 10 Cloudy BKN060 OVC100 71 57     61%   71 30.18 30.17      
Sep 19 07:53 E 7 10 Cloudy OVC090 70 59     68%     30.17 30.16      
Sep 19 06:53 ENE 6 10 Cloudy OVC055 70 60     71%     30.16 30.14      
Sep 19 05:53 ENE 3 10 Cloudy OVC050 69 61     75%     30.13 30.11      
Sep 19 04:53 ENE 3 10 Mostly Cloudy FEW048 BKN075 68 61     78%     30.12 30.1      
Sep 19 03:53 NE 5 10 Cloudy OVC043 70 62     76%     30.11 30.1      
Sep 19 02:53 ESE 6 10 Partly Cloudy FEW050 SCT065 71 61     70%   71 30.1 30.09      
Sep 19 01:53 E 6 10 Cloudy BKN039 OVC055 73 62     68%   73 30.11 30.09      
Sep 19 00:53 E 5 10 Cloudy OVC045 73 61     66%   73 30.11 30.09      
Sep 18 23:53 ESE 8 10 Clear CLR 73 61     66%   73 30.1 30.09      
Sep 18 22:53 E 6 10 Partly Cloudy FEW040 SCT070 74 59     60%   74 30.1 30.08      
Sep 18 21:53 E 8 10 Cloudy OVC070 77 60     56%   77 30.09 30.07      
Sep 18 20:53 E 11 10 Clear CLR 79 61     54%   79 30.06 30.05      
Sep 18 19:53 E 11 10 Partly Cloudy FEW043 SCT050 82 65     56%   84 30.03 30.01      
Sep 18 18:53 ENE 13 10 Mostly Clear FEW055 85 68     57%   88 30 29.99      
Sep 18 17:53 ENE 14 10 Clear CLR 88 69     54%   92 29.99 29.98      
Sep 18 16:53 ENE 11 10 Mostly Cloudy SCT041 BKN050 91 70     50%   97 29.99 29.97      
Sep 18 15:53 E 15 10 Partly Cloudy SCT047 SCT060 91 70     50%   97 29.99 29.97      
Sep 18 14:53 E 11 10 Partly Cloudy FEW046 SCT060 SCT080 94 70     46%   100 30 29.98      
Sep 18 13:53 ESE 14 10 Mostly Cloudy SCT049 BKN060 92 67     44%   95 30.01 29.99      
Sep 18 12:53 ESE 10 10 Mostly Clear FEW085 92 67     44%   95 30.01 29.99      
Notice The following observation data may not be complete
Sep 18 11:53   10 Clear CLR          %              
Sep 18 09:53 E 7 10 Clear CLR 81 60     49%   82 30.01 29.99      
Sep 18 08:53 E 7 10 Clear CLR 76 60     58%   76 29.99 29.98      
Sep 18 07:53 E 3 10 Clear CLR 71 63     76%   71 29.97 29.96      
Sep 18 06:53 E 3 10 Clear CLR 72 66     82%   73 29.95 29.93      
Sep 18 05:53 E 6 10 Clear CLR 73 66     79%   74 29.94 29.92      
Sep 18 04:53 Calm 10 Clear CLR 75 66     74%   76 29.93 29.91      
Sep 18 03:53 ESE 5 10 Mostly Cloudy BKN110 77 67     71%   78 29.93 29.91      
Sep 18 02:53 3 10 Cloudy OVC085 78 69     74%   79 29.93 29.91      
Sep 18 02:41 ESE 7 10 Thunderstorms BKN085 OVC110 77 70     79%   78 29.94        
Sep 18 02:30   10 Cloudy BKN080 OVC110 76 69     79%   77 29.94        
Sep 18 01:53 Calm 10 Mostly Clear FEW120 75 69     82%   76 29.92 29.9      
Sep 18 00:53 W 3 10 Clear CLR 74 68     82%   75 29.92 29.91      
Sep 17 23:53 Calm 10 Clear CLR 77 69     77%   78 29.93 29.91      
Sep 17 22:53 W 5 10 Clear   77 70     79%   78 29.93 29.91      
Sep 17 21:53 W 3 10 Clear CLR 79 70     74%   82 29.93 29.91      
Sep 17 20:53 WSW 3 10 Clear CLR 81 70     69%   84 29.91 29.89      
Sep 17 19:53 Calm 10 Clear CLR 88 63     43%   89 29.9 29.88      
Sep 17 18:53 Calm 10 Clear CLR 96 61     31%   97 29.9 29.88      
Sep 17 17:53 Calm 10 Clear CLR 101 59     25%   101 29.89 29.88      
Sep 17 16:53 WSW 5 10 Clear CLR 101 57     24%   100 29.9 29.88      
Sep 17 15:53 N 9 10 Mostly Clear FEW090 99 58     26%   98 29.91 29.89      
Sep 17 14:53 6 10 Clear CLR 100 58     25%   100 29.94 29.92      
Notice The following observation data may not be complete
May 15 13:58   10 Cloudy SCT013 BKN018 OVC033          %              
May 14 12:53 E 7 10 Clear CLR 86 67     53%   89 30.04 30.02      
May 14 11:53 SE 3 10 Clear CLR 84 66     55%   86 30.05 30.03      
May 12 09:53 N 5 10 Mostly Clear FEW085 83 64     53%   84 30.16 30.14      
May 11 22:53 Calm 10 Clear CLR 72 67     84%   73 30.09 30.07      
Jun 12 08:03 Calm 10 Cloudy BKN009 BKN050 OVC120 73 71     94%   74 30.18        
Jun 11 15:53 ENE 3 10 Clear   83 72     70%   88 30.17 30.15 0    
Notice The following observation data may not be complete
Jun 11 14:53 ENE 5 4 Rain BKN035 BKN050 OVC065   70      %     30.19   0    
Jun 11 02:53 ESE 6 10 Clear CLR 71 67     87%   72 30.13 30.11      
Jun 10 14:53 SE 8 10 Mostly Clear FEW060 88 58     36%   87 30.1 30.08      
Jun 10 02:53 SSE 5 10 Mostly Clear FEW090 69 61     75%     30.02 30.01      
Jun 09 16:53 5 10 Clear CLR 86 54     33%   84 29.94 29.92      
Jun 07 09:23   3 Rain and Fog/Mist BKN009 BKN014 OVC032 67 64     90%     29.79   0